Regional Weather Roundup
Issued by NWS Glasgow, MT

Home | Current Version | Previous Version | Text Only | Print | Product List | Glossary On
Versions: 1 2 3 4 5 6 7 8 9 10 11 12 13 14 15 16 17 18 19 20 21 22 23 24 25 26 27 28 29 30 31 32 33 34 35 36 37 38 39 40 41 42 43 44 45 46 47 48 49
000
ASUS45 KGGW 092315
RWRGGW
HOURLY WEATHER ROUNDUP FOR NORTHEAST MONTANA
NATIONAL WEATHER SERVICE GLASGOW MONTANA
500 PM MDT WED JUL 09 2014

NOTE: "FAIR" INDICATES FEW OR NO CLOUDS BELOW 12,000 FEET WITH NO
SIGNIFICANT WEATHER AND/OR OBSTRUCTIONS TO VISISBILITY.

NORTHEAST MONTANA


CITY           SKY/WX    TMP DP  RH WIND       PRES   REMARKS
GLASGOW        SUNNY     89  49  25 SE12G23   29.82F
PLENTYWOOD       N/A     80  51  36 S8          N/A
WOLF POINT     SUNNY     88  50  27 VRB6      29.85F
JORDAN           N/A     91  45  20 S15G21    29.82F
WINNETT          N/A     91  45  20 E3          N/A
SIDNEY         SUNNY     88  54  31 S8        29.91F
GLENDIVE       SUNNY     90  48  24 SW8       29.90F
MALTA            N/A     94  56  27 S3          N/A

FORT PECK REPORTS


CITY           SKY/WX    TMP DP  RH WIND       PRES   REMARKS
FORT PECK        N/A     86  53  32 E18         N/A
THE PINES        N/A     92  47  21 SE7G15      N/A

SOUTHEAST MONTANA


CITY           SKY/WX    TMP DP  RH WIND       PRES   REMARKS
BILLINGS       CLOUDY    90  50  25 SE6       29.87F
MILES CITY     MOSUNNY   91  50  24 SE9       29.86F
BAKER          SUNNY     87  48  25 E13G21    29.94F
LIVINGSTON     PTSUNNY   90  49  24 SW8       29.91F

CENTRAL MONTANA


CITY           SKY/WX    TMP DP  RH WIND       PRES   REMARKS
HAVRE          MOSUNNY   92  42  17 S8        29.78F
LEWISTOWN      CLOUDY    91  49  23 SE9       29.89F
GREAT FALLS    PTSUNNY   90  48  23 SW10      29.83F
CUT BANK       MOSUNNY   87  45  23 W18       29.85F
HELENA         PTSUNNY   89  44  20 NW14      29.88S
BUTTE          CLOUDY    82  39  21 W6G17     30.03R
BOZEMAN        MOSUNNY   85  50  29 MISG      29.93F

WESTERN MONTANA


CITY           SKY/WX    TMP DP  RH WIND       PRES   REMARKS
MISSOULA       PTSUNNY   88  46  23 W13       29.88F
KALISPELL      NOT AVBL

NORTH DAKOTA


CITY           SKY/WX    TMP DP  RH WIND       PRES   REMARKS
WILLISTON      SUNNY     85  51  31 E9        29.91F
DICKINSON      SUNNY     79  54  41 S12       29.95F
MINOT          SUNNY     77  54  44 S7        29.95F
BISMARCK       SUNNY     78  55  44 SE3       29.98F HAZE

SOUTHERN SASKATCHEWAN


CITY           SKY/WX    TMP DP  RH WIND       PRES   REMARKS
REGINA         SUNNY     79  61  53 SE15      29.87F
MOOSE JAW      MOSUNNY   82  54  36 S8        29.85F
ESTEVAN        PTSUNNY   79  59  50 SE8       29.93F HAZE
SWIFT CURRENT  SUNNY     81  59  47 S9        29.82F




USA.gov is the U.S. government's official web portal to all federal, state and local government web resources and services.